Location: Dittelbrunn
(50.0738°N, 10.2196°E)
Time: 04:52:49
(UTC+00:00)

Cosmos 2278 Rocket - Pass Details

Date: 18 September 2020
Orbit: 841 x 845 km, 71.0° (Epoch: 20 October)

Event Time Altitude Azimuth Distance (km) Brightness Sun altitude
Exits shadow 21:22:35 26° 30° (NNE) 1,614 3.8 -33.3°
Drops below altitude 10° 21:24:55 10° 30° (NNE) 2,471 4.9 -33.5°
Sets 21:27:22 0° 30° (NNE) 3,410 5.7 -33.8°
